Location: Baia Mare
(47.6567°N, 23.5850°E)
Time: 23:00:36
(UTC+03:00)

ISS - Pass Details

Date: 06 July 2018
Orbit: 402 x 408 km, 51.6° (Epoch: 17 July)

Event Time Altitude Azimuth Distance (km) Brightness Sun altitude
Exits shadow 04:11:52 15° 193° (SSW) 1,193 -2.0 -10.8°
Maximum altitude 04:13:54 27° 142° (SE) 820 -2.4 -10.6°
Drops below altitude 10° 04:16:45 10° 82° (E) 1,472 -0.3 -10.3°
Sets 04:19:01 0° 70° (ENE) 2,337 1.1 -10.1°
